Regional Weather Roundup
Issued by NWS

Home | Current Version | Previous Version | Text Only | Print | Product List | Glossary On
Versions: 1 2 3 4 5 6 7 8 9 10 11 12 13 14 15 16 17 18 19 20 21 22 23 24 25 26 27 28 29 30 31 32 33 34 35 36 37 38 39 40 41 42 43 44 45 46 47 48 49 50
000
ASUS44 KOUN 251310
RWROK

WEATHER ROUNDUP FOR OKLAHOMA
NATIONAL WEATHER SERVICE NORMAN OK
800 AM CDT SAT OCT 25 2014

NOTE: "FAIR" INDICATES FEW OR NO CLOUDS BELOW 12,000 FEET WITH NO
      SIGNIFICANT WEATHER AND/OR OBSTRUCTIONS TO VISIBILITY.

OKZ001>007-009>012-014-015-017-251400-
NORTHWEST OKLAHOMA AND THE PANHANDLE

CITY           SKY/WX    TMP DP  RH WIND       PRES   REMARKS
GAGE           CLEAR     50  49  96 W3        30.09R
ENID/WOODRING  CLEAR     54  54 100 N3        30.04R FOG
$$

OKZ016-021>023-033>039-044-045-251400-
SOUTHWEST OKLAHOMA

CITY           SKY/WX    TMP DP  RH WIND       PRES   REMARKS
LAWTON/REGL    CLEAR     58  56  93 S3        30.09R
LAWTON/FT SILL CLEAR     60  58  93 S2        30.07R
FREDERICK      CLEAR     59  54  83 S7        30.06R
CLINTON        CLEAR     61  55  81 SW10      30.10R
HOBART         CLEAR     58  55  90 SW10      30.09R
ALTUS AFB      CLEAR     53  53 100 S2        30.09R
$$

OKZ018>020-024>031-251400-
CENTRAL OKLAHOMA

CITY           SKY/WX    TMP DP  RH WIND       PRES   REMARKS
OKLAHOMA CITY  CLEAR     58  55  90 S7        30.06S FOG
OKC/WILEY POST CLEAR     63  58  83 S10       30.06R
OKC/TINKER AFB CLEAR     59  57  94 S10       30.06S
STILLWATER     CLEAR     57  54  89 CALM      30.05R FOG
GUTHRIE        CLEAR     61  58  90 S6        30.05R
$$

OKZ008-013-054>072-251400-
NORTHEAST OKLAHOMA

CITY           SKY/WX    TMP DP  RH WIND       PRES   REMARKS
TULSA          CLEAR     61  59  93 SE6       30.05S FOG
TULSA/JONES    CLEAR     57  57 100 CALM      30.07R FOG
PONCA CITY     CLEAR     56  54  93 CALM      30.05R FOG
BARTLESVILLE   FOG       52  52 100 CALM      30.07R VSB<1/4
MUSKOGEE       CLEAR     59  56  89 SE6       30.09S
$$

OKZ032-040>043-046>053-073>077-251400-
SOUTH CENTRAL/SOUTHEAST OKLAHOMA

CITY           SKY/WX    TMP DP  RH WIND       PRES   REMARKS
ARDMORE/DWNTWN CLEAR     59  57  94 CALM      30.10S
MCALESTER      PTCLDY    64  58  80 S7        30.10S
$$




USA.gov is the U.S. government's official web portal to all federal, state and local government web resources and services.